Weather in Ulyun

Russia / Republic of Buryatia     53°49′36″N   109°54′41″E
temp.,
°C
wind,
m/s
gust,
m/s
humid.,
%
clouds,
%
prec.,
mm/h
press.,
hPa
HPBL,
m
24 april, sat
sat2423:00−1ssw226296 0.0 104233
02:00−2ne1162100 0.0 104311
05:00−3ne2261100 0.0 104214
08:000ne3443100 0.0 1042422
11:00+5ne4429100 0.0 1038734
14:00+9nne4420100 0.0 1032969
17:00+10nne4322100 0.0 1029699
20:00+7ne3528100 0.0 102882
25 april, sun
sun2523:00+6ene2234100 0.0 102732
02:00+6ne3537100 0.0 1024124
05:00+4ene1152100 0.2 102221
08:00+5wsw1159100 0.5 1021360
11:00+3nw0193100 1.4 1020325
14:00+2ssw2398100 4.1 1018264
17:00+2ssw4798100 1.8 1017300
20:00+1ssw3597100 3.2 1017252
26 april, mon
mon2623:000ssw3695100 0.2 1017276
02:000ssw3594100 0.3 1016278
05:00−1ssw4690100 0.0 1016252
08:00+1ssw457550 0.0 1016570
11:00+4ssw345168 0.0 10131382
14:00+7wnw46366 0.0 10121713
17:00+6w463733 0.0 10131641
20:00+1sw46817 0.0 1015211
27 april, tue
tue2723:000sw358899 0.2 1016253
02:00−2sw23834 0.3 101660
05:00−3sw34806 0.0 101975
08:00+1wsw34525 0.0 1019864
11:00+3wnw453545 0.0 10191905
14:00+4wnw46299 0.0 10192028
17:00+3nw46282 0.0 10191836
20:00−1wnw23427 0.0 102139
28 april, wed
wed2823:00−3sw236126 0.0 102255
02:00−5ssw12675 0.0 102228
05:00−5s117194 0.0 102318
08:00−1ssw225262 0.0 1022542
11:00+3s2335100 0.0 10201417
14:00+6w35305 0.0 10171853
17:00+6wnw34310 0.0 10171324
20:00+2sw23530 0.0 101942